Regional Weather Roundup
Issued by NWS

Home | Current Version | Previous Version | Graphics & Text | Print | Product List | Glossary On
Versions: 1 2 3 4 5 6 7 8 9 10 11 12 13 14 15 16 17 18 19 20 21 22 23 24 25 26 27 28 29 30 31 32 33 34 35 36 37 38 39 40 41 42 43 44 45 46 47 48 49 50
375
ASUS43 KMKX 271200
RWRWI

WISCONSIN REGIONAL WEATHER ROUNDUP
NATIONAL WEATHER SERVICE MILWAUKEE/SULLIVAN WI
700 AM CDT SAT MAY 27 2017

NOTE: "FAIR" INDICATES FEW OR NO CLOUDS BELOW 12,000 FEET WITH NO
SIGNIFICANT WEATHER AND/OR OBSTRUCTIONS TO VISIBILITY.

WIZ001-002-006>008-014>016-023>028-271300-
NORTHWEST WISCONSIN

CITY           SKY/WX    TMP DP  RH WIND       PRES   REMARKS
SUPERIOR ARPT  NOT AVBL
ASHLAND        SUNNY     56  52  86 SW7       29.83S
6HR MIN TEMP:  51; 6HR MAX TEMP:  56;

HAYWARD        FOG       51  50  96 CALM      29.86R VSB 1/4
6HR MIN TEMP:  45; 6HR MAX TEMP:  52;

SIREN          SUNNY     50  49  95 CALM      29.87R
CUMBERLAND     SUNNY     50  46  87 CALM      29.86S
RICE LAKE      SUNNY     51  51  98 CALM      29.88R
6HR MIN TEMP:  49; 6HR MAX TEMP:  58; 6HR PCP:  0.01;

CHETEK         SUNNY     50  50 100 CALM      29.86S
LADYSMITH      FOG       52  52  98 CALM      29.86F VSB<1/4
EAU CLAIRE     NOT AVBL
MENOMONIE      SUNNY     56  51  86 CALM      29.87R
6HR MIN TEMP:  51; 6HR MAX TEMP:  61; 6HR PCP:  0.01;

NEW RICHMOND   SUNNY     52  50  92 W7        29.87S
OSCEOLA        SUNNY     49  49 100 CALM      29.90S
$$

WIZ003>005-009-010-017-018-271300-
NORTH CENTRAL WISCONSIN

CITY           SKY/WX    TMP DP  RH WIND       PRES   REMARKS
MANITOWISH WTR CLOUDY    55  55 100 CALM      29.85S
ARBOR VITAE    CLOUDY    57  56  95 S3        29.85S
WOODRUFF       CLOUDY    57  56  95 S3        29.85S
RHINELANDER    CLOUDY    58  55  90 SW8       29.88R
6HR MIN TEMP:  56; 6HR MAX TEMP:  58; 6HR PCP: TRACE;

EAGLE RIVER    PTSUNNY   56  55  99 CALM      29.86S
LAND O LAKES   CLOUDY    56  55  95 CALM      29.88R
PHILLIPS       FOG       54  54 100 S3        29.85F VSB 1/2
6HR MIN TEMP:  52; 6HR MAX TEMP:  60;

TOMAHAWK       CLOUDY    55  54  97 CALM      29.88R FOG
MEDFORD        CLOUDY    55  54  98 SW3       29.87S FOG
MERRILL        PTSUNNY   54  54 100 CALM      29.88R FOG
6HR MIN TEMP:  50; 6HR MAX TEMP:  56; 6HR PCP:  0.07;

$$

WIZ029-030-035-036-043>047-271300-
CENTRAL WISCONSIN

CITY           SKY/WX    TMP DP  RH WIND       PRES   REMARKS
WAUSAU         SUNNY     56  54  93 CALM      29.87S FOG
6HR MIN TEMP:  52; 6HR MAX TEMP:  56;

MOSINEE        MOSUNNY   55  55 100 S3        29.89S FOG
MARSHFIELD     CLOUDY    55  53  93 SW5       29.87S FOG
6HR MIN TEMP:  53; 6HR MAX TEMP:  56;

STEVENS POINT  CLOUDY    53  53 100 CALM      29.89S FOG
WAUPACA        SUNNY     54  53  97 CALM      29.90R FOG
WAUTOMA        CLOUDY    52  51  97 CALM      29.91S FOG
6HR MIN TEMP:  47; 6HR MAX TEMP:  52;

WISC RAPIDS    SUNNY     56  55  97 S3        29.89F FOG
6HR MIN TEMP:  50; 6HR MAX TEMP:  56;

CAMP DOUGLAS   NOT AVBL
$$

WIZ011>013-019>022-031-037>040-048>050-271300-
NORTHEAST WISCONSIN

CITY           SKY/WX    TMP DP  RH WIND       PRES   REMARKS
ANTIGO         CLOUDY    54  54  99 SW5       29.89R FOG
SHAWANO        SUNNY     56  54  93 CALM      29.89S
6HR MIN TEMP:  51; 6HR MAX TEMP:  58;

OCONTO         SUNNY     52  51  98 CALM      29.88S
STURGEON BAY   CLOUDY    55  52  89 SW3       29.91R
6HR MIN TEMP:  47; 6HR MAX TEMP:  55;

GREEN BAY      SUNNY     55  55 100 CALM      29.90R FOG
6HR MIN TEMP:  50; 6HR MAX TEMP:  57;

MANITOWOC      NOT AVBL
APPLETON       MOSUNNY   55  55 100 VRB5      29.89R
CLINTONVILLE   SUNNY     54  52  94 CALM      29.89S FOG
OSHKOSH        SUNNY     57  53  86 S5        29.89S
6HR MIN TEMP:  48; 6HR MAX TEMP:  57;

$$

WIZ032>034-041-042-053>061-271300-
SOUTHWEST WISCONSIN

CITY           SKY/WX    TMP DP  RH WIND       PRES   REMARKS
LA CROSSE      SUNNY     61  59  93 S7        29.87S
6HR MIN TEMP:  58; 6HR MAX TEMP:  63;

SPARTA         PTSUNNY   49  48  97 CALM      29.88F
VIROQUA        CLOUDY    58  58 100 N7        29.89F
6HR MIN TEMP:  55; 6HR MAX TEMP:  58;

BOSCOBEL       FOG       54  53  97 CALM      29.90F VSB 1/2
6HR MIN TEMP:  51; 6HR MAX TEMP:  54;

PRAIRIE DU CHI CLOUDY    55  54  97 CALM      29.89S FOG
PLATTEVILLE      N/A     53  53 100 SE5       29.91F
$$

WIZ056-057-062-063-064-067-068-271300-
SOUTH CENTRAL WISCONSIN

CITY           SKY/WX    TMP DP  RH WIND       PRES   REMARKS
REEDSBURG      MOSUNNY   53  53 100 CALM      29.90S FOG
6HR MIN TEMP:  48; 6HR MAX TEMP:  53;

BARABOO/DELLS  SUNNY     51  50  96 CALM      29.90F FOG
LONE ROCK      NOT AVBL
MINERAL POINT  FOG       52  52 100 S3        29.91F VSB 1/2
MADISON        FOG       50  50 100 CALM      29.91S VSB 1/4
6HR MIN TEMP:  45; 6HR MAX TEMP:  51;

MIDDLETON      SUNNY     50  50 100 CALM      29.92R
WATERTOWN      FOG       49  49 100 CALM      29.92R VSB 1/4
MONROE         SUNNY     52  52 100 S5        29.92S
JANESVILLE     MOSUNNY   52  52 100 CALM      29.92R FOG
$$

WIZ051-052-058>065-066-070>072-271300-
SOUTHEAST WISCONSIN

CITY           SKY/WX    TMP DP  RH WIND       PRES   REMARKS
MILWAUKEE      PTSUNNY   59  55  87 CALM      29.92R FOG
6HR MIN TEMP:  50; 6HR MAX TEMP:  59;

WAUKESHA       SUNNY     48  48 100 CALM      29.93R FOG
MILWAUKEE/TIMM   N/A     50  48  93 CALM      29.92R FOG
RACINE         SUNNY     55  52  89 NW3       29.94R FOG
6HR MIN TEMP:  47; 6HR MAX TEMP:  55;

KENOSHA        SUNNY     54  52  93 CALM      29.93R FOG
6HR MIN TEMP:  47; 6HR MAX TEMP:  54;

FOND DU LAC    SUNNY     55  52  89 S6        29.91S
6HR MIN TEMP:  48; 6HR MAX TEMP:  55;

SHEBOYGAN      SUNNY     53  53 100 SW3       29.92R
6HR MIN TEMP:  47; 6HR MAX TEMP:  53;

WEST BEND      SUNNY     50  50 100 CALM      29.92R FOG
JUNEAU         FOG       49  49  99 CALM      29.92S VSB<1/4
$$

LSZ147-162-271300-
LAKE SUPERIOR

STATION/POSITION TIME  TEMP    WIND        PRES    WAVE
                       AIR SEA DIR/SP/G            HT/PER
                 (UTC) (F)     (DEG/KT/KT) (MB)    (FT/S)
W MID LAKE BUOY  1050   39 37  280/  8/ 10 1009.7R   0
DEVILS ISLAND    1100   44     260/  9/ 10 1010.2R
PORT WING        1040   44     140/  2/  4 1010.2R
SAXON HARBOR     1130   57     190/  5/  8 1009.5F
$$

LMZ867-665-643>646-271300-
LAKE MICHIGAN

STATION/POSITION TIME  TEMP    WIND        PRES    WAVE
                       AIR SEA DIR/SP/G            HT/PER
                 (UTC) (F)     (DEG/KT/KT) (MB)    (FT/S)
CHAMBERS ISLAND  1130   58     180/  3/  8 1011.9R
N MID LAKE BUOY  1050   44 42  170/  6/  6 1013.0R   0
NORTHPORT PIER   1140   53     160/  4/  5 1011.9S
SISTER BAY       1051   52     160/  7/ 10   N/A
ALGOMA LAKESHORE 1101             CALM       N/A
KEWAUNEE LAKESHO 1130   50      CALM  /  1 1012.0R
SHEBOYGAN LAKESH 1100   53     280/  3/  4 1012.4R
PORT WASHINGTON  1130   56     270/  2/  4 1013.9R
ATWATER BUOY     1009   49      CALM  /  2 1012.0S
MILWAUKEE LAKESH 1130   51      50/  2/  2   N/A
S MID LAKE BUOY  1050   48 46   10/  4/  4 1012.6R   0
KENOSHA   LAKESH 1100   52        CALM     1012.2
$$

TC  - TEMPERATURE IN CELSIUS
VSB - VISIBILITY IN STATUTE MILES
WCI - WIND CHILL INDEX
HX  - HEAT INDEX





USA.gov is the U.S. government's official web portal to all federal, state and local government web resources and services.